Weather in Bereket

Turkmenistan     39°14′48″N   55°31′01″E
temp.,
°C
wind,
m/s
gust,
m/s
humid.,
%
clouds,
%
prec.,
mm/h
press.,
hPa
HPBL,
m
8 march, mon
mon823:00+9nnw357183 0.0 1020366
02:00+8nnw2471100 0.0 1021508
05:00+6nne346899 0.0 1022316
08:00+5ene457373 0.0 1023302
11:00+7e676450 0.0 1023554
14:00+10e895515 0.0 1020731
17:00+11e911508 0.0 1016849
20:00+10e612560 0.0 1015461
9 march, tue
tue923:00+9e596216 0.0 1013211
02:00+8e446785 0.0 101165
05:00+6nnw237152 0.0 101123
08:00+7wsw126997 0.0 101223
11:00+11wsw565396 0.0 1013426
14:00+14w894226 0.0 10131148
17:00+14w894714 0.0 10131090
20:00+10wsw69611 0.0 1015479
10 march, wed
wed1023:00+8wsw476217 0.0 1017303
02:00+6w3564100 0.0 1018271
05:00+5nnw3468100 0.0 1019415
08:00+3nne1376100 0.0 1021271
11:00+5n216466 0.0 1023662
14:00+8nw22505 0.0 1022872
17:00+10nw234440 0.0 1021922
20:00+9nw014953 0.0 102294
11 march, thu
thu1123:00+8wsw225226 0.0 102333
02:00+6ssw11590 0.0 102122
05:00+6e23580 0.0 101922
08:00+5e466289 0.0 101789
11:00+10e7105250 0.0 1015516
14:00+14e8945100 0.0 1012736
17:00+16ene6840100 0.0 1008761
20:00+14ne4548100 0.0 100689
12 march, fri
fri1223:00+12ne4652100 0.0 1005108
02:00+10n3352100 0.0 100551
05:00+7n5763100 0.3 1006569
08:00+3nne6778100 1.1 1008617
11:00+2nne5695100 3.7 1010387
14:00+2nne5794100 0.8 1011454
17:00+3nne81081100 1.4 1013848
20:000nne91296100 1.9 1018770